EW6470 Weather Reports


Display with metric or nautical units.
time (UTC)temp
F
wind
direction
speed
MPH
gust
MPH
rain 1hr
in
rain 24hr
in
rain mn
in
humidity
%
barometer
mb
20260510110509 40 0 0.0 0.0 0.00 0.01 0.00 90 994.1
20260510110029 40 0 0.0 0.0 0.00 0.01 0.00 90 994.0
20260510105509 40 0 0.0 0.0 0.00 0.02 0.00 90 994.1
20260510105010 40 0 0.0 0.0 0.00 0.02 0.00 90 994.0
20260510104530 40 0 0.0 0.0 0.00 0.02 0.00 90 994.1
20260510104010 41 0 0.0 1.0 0.00 0.02 0.00 90 994.2
20260510103512 41 0 0.0 1.0 0.00 0.02 0.00 89 994.1
20260510103028 41 0 0.0 1.0 0.00 0.02 0.00 88 994.1
20260510102510 41 172 0.0 1.0 0.00 0.02 0.00 87 993.9
20260510102009 41 195 0.0 1.0 0.00 0.02 0.00 86 994.0
20260510101531 41 0 0.0 1.0 0.00 0.02 0.00 86 993.9
20260510101008 41 0 0.0 1.0 0.00 0.02 0.00 85 993.8
20260510100507 42 209 0.0 1.0 0.00 0.02 0.00 85 993.9
20260510100028 42 0 0.0 0.0 0.00 0.02 0.00 85 993.8
20260510095511 42 0 0.0 2.0 0.00 0.03 0.00 85 993.9
20260510095014 42 257 0.0 2.0 0.00 0.03 0.00 85 993.8
20260510094542 41 0 0.0 1.0 0.00 0.03 0.00 85 993.9
20260510094008 41 319 0.0 1.0 0.00 0.03 0.00 85 993.9
20260510093509 41 0 0.0 0.0 0.00 0.03 0.00 84 993.9
20260510093028 42 0 0.0 1.0 0.00 0.03 0.00 83 993.9
20260510092515 42 0 0.0 1.0 0.00 0.03 0.00 83 993.8
20260510092012 42 0 0.0 0.0 0.00 0.03 0.00 84 994.0
20260510091533 42 0 0.0 0.0 0.00 0.03 0.00 83 993.9
20260510091009 42 0 0.0 0.0 0.00 0.03 0.00 83 993.9
20260510090510 42 0 0.0 0.0 0.00 0.03 0.00 83 993.9
20260510090028 42 0 0.0 0.0 0.00 0.03 0.00 83 994.0
20260510085509 42 0 0.0 0.0 0.00 0.04 0.00 83 994.0
20260510085007 42 0 0.0 0.0 0.00 0.04 0.00 83 994.0
20260510084534 42 0 0.0 0.0 0.00 0.04 0.00 83 994.0
20260510084009 42 0 0.0 0.0 0.00 0.04 0.00 83 994.0
20260510083510 42 0 0.0 0.0 0.00 0.04 0.00 82 993.9
20260510083047 42 0 0.0 0.0 0.00 0.04 0.00 83 993.8
20260510082509 42 0 0.0 0.0 0.00 0.04 0.00 83 993.8
20260510082017 42 0 0.0 0.0 0.00 0.04 0.00 82 993.8
20260510081530 43 0 0.0 0.0 0.00 0.04 0.00 82 993.9
20260510081011 43 0 0.0 0.0 0.00 0.04 0.00 82 993.9
20260510080512 43 0 0.0 0.0 0.00 0.04 0.00 81 993.8
20260510080028 43 0 0.0 0.0 0.00 0.04 0.00 81 993.9
20260510075510 43 0 0.0 0.0 0.00 0.04 0.04 81 993.9
20260510075010 43 0 0.0 1.0 0.00 0.04 0.04 81 993.9
20260510074529 43 0 0.0 1.0 0.00 0.04 0.04 81 993.8
20260510074008 43 0 0.0 1.0 0.00 0.04 0.04 81 993.8
20260510073509 43 0 0.0 1.0 0.00 0.04 0.04 81 993.8
20260510073029 44 0 0.0 2.0 0.00 0.04 0.04 81 993.9
20260510072514 44 0 0.0 2.0 0.00 0.04 0.04 80 993.8
20260510072010 44 0 0.0 1.0 0.00 0.04 0.04 80 993.8
20260510071536 44 0 0.0 1.0 0.00 0.04 0.04 79 993.9
20260510071014 44 0 0.0 1.0 0.00 0.04 0.04 79 993.8
20260510070509 44 0 0.0 1.0 0.00 0.04 0.04 79 993.7
20260510070030 44 0 0.0 1.0 0.00 0.04 0.04 79 993.6
20260510065512 44 0 0.0 1.0 0.00 0.05 0.04 78 993.6
20260510065012 44 0 0.0 2.0 0.00 0.05 0.04 78 993.5
20260510064529 45 0 0.0 2.0 0.00 0.05 0.04 78 993.4
20260510064007 45 100 0.0 2.0 0.00 0.05 0.04 78 993.5
20260510063508 45 0 0.0 1.0 0.00 0.05 0.04 77 993.4
20260510063028 45 0 0.0 1.0 0.00 0.05 0.04 77 993.2
20260510062510 45 0 0.0 1.0 0.00 0.05 0.04 77 993.3
20260510062009 45 49 0.0 1.0 0.00 0.05 0.04 77 993.2
20260510061533 45 0 0.0 1.0 0.00 0.05 0.04 77 993.3
20260510061010 45 0 0.0 3.0 0.00 0.05 0.04 77 993.2
20260510060512 45 0 0.0 3.0 0.00 0.05 0.04 76 993.2
20260510060037 46 97 0.0 1.0 0.00 0.05 0.04 75 993.2
20260510055509 46 0 0.0 2.0 0.00 0.05 0.04 75 993.1
20260510055011 46 0 0.0 2.0 0.00 0.05 0.04 75 993.1
20260510054537 46 108 0.0 2.0 0.00 0.05 0.04 74 993.0
20260510054014 46 94 0.0 2.0 0.00 0.05 0.04 74 993.0
20260510053510 46 0 0.0 2.0 0.00 0.05 0.04 74 993.0
20260510053030 47 48 0.0 4.0 0.00 0.05 0.04 73 993.0
20260510052514 47 0 0.0 4.0 0.00 0.05 0.04 73 993.0
20260510052007 47 36 1.0 2.0 0.00 0.05 0.04 72 992.9
20260510051528 47 76 0.0 3.0 0.00 0.05 0.04 72 992.7
20260510051010 48 125 1.0 4.0 0.00 0.05 0.04 71 992.7
20260510050508 48 0 1.0 4.0 0.00 0.05 0.04 70 992.7
20260510050029 48 117 0.0 2.0 0.00 0.05 0.04 70 992.8
20260510045514 49 0 0.0 2.0 0.00 0.05 0.04 69 992.7
20260510045014 49 111 0.0 2.0 0.00 0.05 0.04 69 992.7
20260510044530 49 125 0.0 2.0 0.00 0.05 0.04 68 992.7
20260510044009 49 82 0.0 2.0 0.00 0.05 0.04 67 992.6
20260510043510 50 345 0.0 2.0 0.00 0.05 0.04 67 992.6
20260510043031 50 53 0.0 4.0 0.00 0.05 0.04 67 992.6
20260510042515 50 10 0.0 4.0 0.00 0.05 0.04 67 992.7
20260510042011 50 40 0.0 4.0 0.00 0.05 0.04 66 992.6
20260510041528 51 160 0.0 3.0 0.00 0.05 0.04 65 992.5
20260510041007 51 26 0.0 2.0 0.00 0.05 0.04 65 992.5
20260510040507 51 0 0.0 2.0 0.00 0.05 0.04 64 992.6
20260510040030 52 110 0.0 2.0 0.00 0.05 0.04 63 992.6
20260510035508 52 124 0.0 2.0 0.00 0.05 0.04 63 992.6
20260510035009 52 130 0.0 5.0 0.00 0.05 0.04 62 992.7
20260510034528 53 352 1.0 5.0 0.00 0.05 0.04 62 992.6
20260510034009 53 100 1.0 3.0 0.00 0.05 0.04 60 992.5
20260510033510 54 78 0.0 3.0 0.00 0.05 0.04 61 992.5
20260510033027 53 105 1.0 3.0 0.00 0.05 0.04 60 992.6
20260510032508 53 71 0.0 3.0 0.00 0.05 0.04 60 992.6
20260510032011 53 11 1.0 7.0 0.00 0.05 0.04 59 992.6
20260510031528 54 0 1.0 7.0 0.00 0.05 0.04 59 992.5
20260510031012 54 337 2.0 7.0 0.00 0.05 0.04 58 992.4
20260510030517 54 118 1.0 5.0 0.00 0.05 0.04 57 992.6
20260510030027 54 119 2.0 7.0 0.00 0.05 0.04 57 992.5
20260510025513 55 41 1.0 7.0 0.00 0.05 0.04 58 992.5
20260510025009 55 91 2.0 7.0 0.00 0.05 0.04 56 992.5
20260510024527 55 61 0.0 3.0 0.00 0.05 0.04 57 992.4
20260510024009 54 148 1.0 6.0 0.00 0.05 0.04 60 992.4
20260510023510 53 82 1.0 6.0 0.00 0.05 0.04 59 992.4
20260510023030 54 205 2.0 6.0 0.00 0.05 0.04 58 992.4
20260510022511 54 0 2.0 6.0 0.00 0.05 0.04 59 992.5
20260510022011 54 98 2.0 5.0 0.00 0.05 0.04 59 992.5
20260510021531 54 111 2.0 9.0 0.00 0.05 0.04 58 992.5
20260510021007 55 69 3.0 9.0 0.00 0.05 0.04 58 992.4
20260510020513 55 167 2.0 7.0 0.00 0.05 0.04 58 992.4
20260510020030 54 154 1.0 7.0 0.00 0.05 0.04 59 992.4
20260510015511 54 134 3.0 10.0 0.00 0.05 0.04 58 992.4
20260510015011 54 125 3.0 10.0 0.00 0.05 0.04 60 992.4
20260510014526 54 81 2.0 4.0 0.00 0.05 0.04 60 992.2
20260510014008 53 113 1.0 6.0 0.00 0.05 0.04 62 992.4
20260510013511 53 111 2.0 8.0 0.00 0.05 0.04 61 992.4
20260510013029 53 87 2.0 8.0 0.00 0.05 0.04 62 992.5
20260510012510 53 132 3.0 8.0 0.00 0.05 0.04 60 992.5
20260510012010 53 71 2.0 6.0 0.00 0.05 0.04 60 992.4
20260510011530 53 113 2.0 9.0 0.00 0.05 0.04 60 992.5
20260510011010 53 155 1.0 9.0 0.00 0.05 0.04 60 992.5
20260510010508 53 114 2.0 9.0 0.00 0.05 0.04 60 992.4
20260510010027 53 84 2.0 7.0 0.00 0.05 0.04 60 992.5
20260510005512 53 143 3.0 8.0 0.00 0.05 0.04 59 992.4
20260510005012 54 69 1.0 8.0 0.00 0.05 0.04 59 992.4
20260510004528 53 25 2.0 7.0 0.00 0.05 0.04 59 992.4
20260510004010 53 144 3.0 6.0 0.00 0.05 0.04 59 992.5
20260510003509 53 123 3.0 7.0 0.00 0.05 0.04 58 992.3
20260510003037 53 98 3.0 7.0 0.00 0.05 0.04 58 992.4
20260510002509 53 144 2.0 6.0 0.00 0.05 0.04 60 992.3
20260510002013 53 115 2.0 7.0 0.00 0.05 0.04 61 992.4
20260510001529 53 81 1.0 7.0 0.00 0.05 0.04 61 992.4
20260510001009 53 154 3.0 7.0 0.00 0.05 0.04 60 992.4
20260510000510 53 100 2.0 9.0 0.00 0.05 0.04 61 992.4
20260510000031 53 77 3.0 9.0 0.00 0.05 0.04 60 992.4
20260509235509 53 150 3.0 7.0 0.00 0.05 0.04 60 992.3
20260509235009 53 163 1.0 6.0 0.00 0.05 0.04 61 992.2
20260509234538 52 113 2.0 6.0 0.00 0.05 0.04 62 992.2
20260509234008 53 126 1.0 3.0 0.00 0.05 0.04 64 992.3
20260509233508 52 0 1.0 6.0 0.00 0.05 0.04 64 992.4
20260509233027 51 109 2.0 7.0 0.00 0.05 0.04 64 992.5
20260509232511 51 115 2.0 7.0 0.00 0.05 0.04 63 992.5
20260509232014 51 133 1.0 7.0 0.00 0.05 0.04 67 992.5
20260509231528 51 142 3.0 7.0 0.00 0.05 0.04 64 992.5
20260509231010 51 110 2.0 7.0 0.00 0.05 0.04 64 992.4
20260509230510 51 130 3.0 7.0 0.00 0.05 0.04 65 992.5
20260509230029 51 101 2.0 4.0 0.00 0.05 0.04 66 992.5
20260509225510 51 90 1.0 7.0 0.00 0.05 0.04 66 992.5
20260509225010 50 79 1.0 7.0 0.00 0.05 0.04 67 992.6
20260509224533 50 78 1.0 9.0 0.00 0.05 0.04 66 992.6
20260509224011 50 114 3.0 9.0 0.00 0.05 0.04 66 992.6
20260509223510 50 88 2.0 7.0 0.00 0.05 0.04 67 992.5
20260509223031 50 74 2.0 7.0 0.00 0.05 0.04 67 992.6
20260509222509 50 108 1.0 7.0 0.00 0.05 0.04 69 992.5
20260509222057 50 122 3.0 7.0 0.00 0.05 0.04 68 992.5
20260509221533 49 121 2.0 7.0 0.00 0.05 0.04 70 992.4
20260509221012 49 144 2.0 11.0 0.00 0.05 0.04 70 992.5
20260509220510 49 82 1.0 11.0 0.00 0.05 0.04 71 992.5
20260509220029 49 111 2.0 11.0 0.00 0.05 0.04 72 992.5
20260509215513 49 82 2.0 6.0 0.00 0.05 0.04 72 992.5
20260509215012 49 135 1.0 4.0 0.00 0.05 0.04 73 992.5
20260509214529 49 119 2.0 6.0 0.00 0.05 0.04 72 992.5
20260509214014 49 154 2.0 6.0 0.00 0.05 0.04 72 992.6
20260509213509 49 86 1.0 8.0 0.00 0.05 0.04 74 992.5
20260509213028 48 112 1.0 8.0 0.00 0.05 0.04 74 992.6
20260509212511 48 139 1.0 7.0 0.00 0.05 0.04 74 992.5
20260509212014 48 146 2.0 7.0 0.00 0.05 0.04 74 992.5
20260509211527 48 348 1.0 4.0 0.00 0.05 0.04 75 992.5
20260509211010 48 114 1.0 4.0 0.00 0.05 0.04 77 992.5
20260509210509 47 89 1.0 5.0 0.00 0.05 0.04 76 992.4
20260509210033 47 76 2.0 5.0 0.00 0.05 0.04 76 992.4
20260509205508 47 121 1.0 7.0 0.00 0.05 0.04 77 992.5
20260509205010 47 0 1.0 7.0 0.00 0.05 0.04 77 992.6
20260509204531 46 68 1.0 4.0 0.00 0.05 0.04 78 992.4
20260509204010 46 111 2.0 8.0 0.00 0.05 0.04 78 992.5
20260509203511 46 47 1.0 9.0 0.00 0.05 0.04 80 992.5
20260509203038 46 150 2.0 9.0 0.00 0.05 0.04 79 992.5
20260509202508 45 74 1.0 4.0 0.00 0.05 0.04 80 992.5
20260509202010 45 101 1.0 5.0 0.00 0.05 0.04 80 992.6
20260509201530 45 83 1.0 6.0 0.00 0.05 0.04 80 992.4
20260509201013 45 142 2.0 6.0 0.00 0.05 0.04 80 992.5
20260509200511 45 136 3.0 6.0 0.00 0.05 0.04 79 992.5
20260509200030 45 130 1.0 4.0 0.00 0.05 0.04 80 992.6
20260509195510 45 120 1.0 5.0 0.00 0.05 0.04 80 992.4
20260509195011 45 142 2.0 5.0 0.00 0.05 0.04 82 992.4
20260509194530 45 69 0.0 4.0 0.00 0.05 0.04 83 992.4
20260509194012 44 178 2.0 4.0 0.00 0.05 0.04 83 992.5
20260509193513 44 163 1.0 4.0 0.00 0.05 0.04 84 992.4
20260509193034 44 165 1.0 4.0 0.00 0.05 0.04 85 992.5
20260509192512 44 153 1.0 4.0 0.00 0.05 0.04 85 992.4
20260509192012 43 139 2.0 4.0 0.00 0.05 0.04 86 992.5
20260509191528 43 86 0.0 2.0 0.00 0.05 0.04 87 992.3
20260509191011 43 76 1.0 2.0 0.00 0.05 0.04 88 992.3
20260509190511 42 159 0.0 1.0 0.00 0.05 0.04 90 992.3
20260509190030 42 58 0.0 1.0 0.00 0.05 0.04 90 992.3
20260509185508 41 0 0.0 0.0 0.00 0.05 0.04 90 992.3
20260509185008 41 0 0.0 1.0 0.00 0.05 0.04 90 992.4
20260509184533 40 0 0.0 1.0 0.00 0.05 0.04 90 992.4
20260509184009 40 0 0.0 1.0 0.00 0.05 0.04 91 992.5
20260509183510 40 0 0.0 1.0 0.00 0.05 0.04 91 992.5
20260509183031 40 22 0.0 1.0 0.00 0.05 0.04 92 992.5
20260509182512 40 0 0.0 1.0 0.00 0.05 0.04 92 992.5
20260509182009 40 0 0.0 1.0 0.00 0.05 0.04 92 992.5
20260509181527 39 136 0.0 1.0 0.00 0.05 0.04 92 992.5
20260509181010 39 0 0.0 1.0 0.00 0.05 0.04 92 992.5
20260509180509 39 0 0.0 1.0 0.00 0.05 0.04 93 992.5
20260509180028 39 0 0.0 1.0 0.00 0.05 0.04 93 992.5
20260509175509 39 136 0.0 1.0 0.00 0.05 0.04 93 992.5
20260509175008 39 136 0.0 1.0 0.00 0.05 0.04 93 992.6
20260509174528 39 0 0.0 1.0 0.00 0.05 0.04 94 992.5
20260509174010 38 0 0.0 1.0 0.00 0.05 0.04 94 992.5
20260509173509 38 0 0.0 1.0 0.00 0.05 0.04 94 992.6
20260509173028 38 134 0.0 1.0 0.00 0.05 0.04 94 992.5
20260509172509 38 0 0.0 2.0 0.00 0.05 0.04 94 992.7
20260509172010 38 134 0.0 2.0 0.00 0.05 0.04 94 992.8
20260509171530 38 136 0.0 2.0 0.00 0.05 0.04 95 992.8
20260509171016 38 0 0.0 1.0 0.00 0.05 0.04 95 993.0
20260509170510 38 87 0.0 1.0 0.00 0.05 0.04 95 992.9
20260509170037 37 0 0.0 1.0 0.00 0.05 0.04 95 992.8
20260509165509 37 0 0.0 1.0 0.00 0.05 0.04 95 992.8
20260509165011 37 73 0.0 1.0 0.00 0.05 0.04 95 992.9
20260509164536 37 0 0.0 1.0 0.00 0.05 0.04 95 992.9
20260509164016 37 73 0.0 1.0 0.00 0.05 0.04 95 993.0
20260509163508 37 0 0.0 1.0 0.00 0.05 0.04 95 993.1
20260509163032 37 0 0.0 1.0 0.00 0.05 0.04 95 993.1
20260509162510 37 153 0.0 1.0 0.00 0.05 0.04 95 993.1
20260509162015 37 296 0.0 1.0 0.00 0.05 0.04 95 993.1
20260509161534 37 0 0.0 0.0 0.00 0.05 0.04 95 993.2
20260509161011 36 0 0.0 0.0 0.00 0.05 0.04 95 993.1
20260509160509 36 0 0.0 1.0 0.00 0.05 0.04 95 993.2
20260509160036 36 0 0.0 1.0 0.00 0.05 0.04 95 993.2
20260509155510 36 0 0.0 0.0 0.00 0.05 0.04 95 993.2
20260509155008 36 296 0.0 0.0 0.00 0.05 0.04 95 993.2
20260509154532 36 0 0.0 0.0 0.00 0.05 0.04 95 993.0
20260509154010 36 0 0.0 1.0 0.00 0.05 0.04 95 993.1
20260509153512 36 0 0.0 1.0 0.00 0.05 0.04 95 993.2
20260509153037 36 0 0.0 0.0 0.00 0.05 0.04 95 993.0
20260509152509 36 0 0.0 0.0 0.00 0.05 0.04 95 993.2
20260509152009 36 0 0.0 0.0 0.00 0.05 0.04 95 993.3
20260509151530 36 0 0.0 0.0 0.00 0.05 0.04 95 993.3
20260509151011 36 0 0.0 0.0 0.00 0.05 0.04 95 993.3
20260509150509 36 0 0.0 0.0 0.00 0.05 0.04 95 993.3
20260509150031 36 0 0.0 0.0 0.00 0.05 0.04 95 993.3
20260509145510 35 0 0.0 0.0 0.00 0.05 0.04 95 993.3
20260509145010 35 0 0.0 0.0 0.00 0.05 0.04 95 993.3
20260509144533 35 0 0.0 0.0 0.00 0.05 0.04 95 993.3
20260509144010 35 0 0.0 0.0 0.00 0.05 0.04 95 993.4
20260509143508 35 0 0.0 0.0 0.00 0.05 0.04 95 993.4
20260509143031 35 0 0.0 0.0 0.00 0.05 0.04 95 993.3
20260509142509 36 0 0.0 0.0 0.00 0.05 0.04 95 993.6
20260509142009 36 0 0.0 0.0 0.00 0.05 0.04 95 993.6
20260509141529 36 0 0.0 0.0 0.00 0.05 0.04 95 993.7
20260509141008 36 0 0.0 0.0 0.00 0.05 0.04 95 993.6
20260509140509 36 0 0.0 0.0 0.00 0.05 0.04 95 993.7
20260509140032 36 0 0.0 0.0 0.00 0.05 0.04 95 993.8
20260509135513 36 0 0.0 0.0 0.00 0.05 0.04 95 993.9
20260509135009 36 0 0.0 0.0 0.00 0.05 0.04 95 994.0
20260509134530 36 0 0.0 0.0 0.01 0.05 0.04 95 994.0
20260509134013 36 0 0.0 0.0 0.01 0.05 0.04 95 994.1
20260509133510 36 0 0.0 0.0 0.01 0.05 0.04 95 994.1
20260509133030 36 0 0.0 0.0 0.01 0.05 0.04 95 994.1
20260509132509 36 0 0.0 0.0 0.01 0.05 0.04 95 994.2
20260509132016 36 0 0.0 0.0 0.01 0.05 0.04 95 994.2
20260509131534 36 0 0.0 0.0 0.01 0.05 0.04 95 994.3
20260509131013 36 0 0.0 0.0 0.01 0.05 0.04 95 994.5
20260509130509 36 0 0.0 0.0 0.01 0.05 0.04 95 994.4
20260509130029 36 0 0.0 0.0 0.01 0.05 0.04 95 994.5
20260509125512 36 0 0.0 0.0 0.01 0.05 0.04 95 994.7
20260509125012 36 0 0.0 0.0 0.01 0.05 0.04 95 994.7
20260509124530 36 0 0.0 0.0 0.00 0.04 0.03 95 994.9
20260509124010 36 0 0.0 0.0 0.00 0.04 0.03 95 994.8
20260509123510 36 0 0.0 0.0 0.00 0.04 0.03 95 994.9
20260509123027 36 0 0.0 0.0 0.00 0.04 0.03 95 995.1
20260509122510 36 0 0.0 0.0 0.00 0.04 0.03 95 995.2
20260509122007 36 0 0.0 0.0 0.00 0.04 0.03 95 995.3
20260509121531 36 296 0.0 0.0 0.00 0.04 0.03 95 995.4
20260509121012 36 0 0.0 0.0 0.00 0.04 0.03 95 995.5
20260509120509 36 0 0.0 0.0 0.00 0.04 0.03 95 995.4
20260509120036 36 0 0.0 0.0 0.00 0.04 0.03 95 995.5
20260509115509 36 0 0.0 0.0 0.00 0.04 0.03 95 995.6
20260509115009 36 0 0.0 0.0 0.00 0.04 0.03 95 995.7
20260509114533 36 0 0.0 0.0 0.01 0.04 0.03 95 995.7
20260509114010 36 0 0.0 0.0 0.01 0.04 0.03 95 995.8
20260509113509 36 0 0.0 0.0 0.01 0.04 0.03 94 995.9
20260509113028 36 0 0.0 0.0 0.01 0.04 0.03 94 996.0
20260509112510 36 0 0.0 0.0 0.01 0.04 0.03 94 996.1
20260509112009 36 0 0.0 0.0 0.01 0.04 0.03 94 996.1
20260509111529 36 0 0.0 0.0 0.01 0.04 0.03 94 996.2
20260509111009 36 0 0.0 0.0 0.01 0.04 0.03 94 996.3